Change the Weather History Date:

Thursday, October 6, 2011

  Actual Average Record
Temperature  
Mean Temperature 58 °F -  
Max Temperature 64 °F 71 °F 90 °F (1980)
Min Temperature 52 °F 44 °F 29 °F (1974)
Degree Days  
Heating Degree Days 8    
Growing Degree Days 8 (Base 50)    
Moisture  
Dew Point 43 °F    
Average Humidity 60    
Maximum Humidity 71    
Minimum Humidity 46    
Precipitation  
Precipitation 0.01 in - - ()
Sea Level Pressure  
Sea Level Pressure 29.90 in    
Wind  
Wind Speed 14 mph (WNW)    
Max Wind Speed 28 mph    
Max Gust Speed 38 mph    
Visibility 10 miles    
Events Rain    
Averages and records for this station are not official NWS values.
T = Trace of Precipitation, MM = Missing Value Source: NWS Daily Summary

Daily Weather History Graph

Daily Weather History Graph

Search for Another Location

Airport or City:

Trip Planner

Search our weather history database for the weather conditions in past years. The results will help you decide how hot, cold, wet, or windy it might be!

Date:

Astronomy

Oct. 06, 2011 Rise Set
Actual Time 7:09 AM PDT 6:35 PM PDT
Civil Twilight 6:39 AM PDT 7:05 PM PDT
Nautical Twilight 6:05 AM PDT 7:39 PM PDT
Astronomical Twilight 5:30 AM PDT 8:14 PM PDT
Moon 4:04 PM PDT (10/6) 1:48 AM PDT (10/6)
Length of Visible Light 12h 25m
Length of Day
11h 26m
Waxing Gibbous, 76% of the Moon is Illuminated
Oct 6
Waxing Gibbous
Oct 11
Full
Oct 19
Last Quarter
Oct 26
New
Nov 2
First Quarter

Hourly Weather History & Observations

Time (PDT) Temp. Dew Point Humidity Pressure Visibility Wind Dir Wind Speed Gust Speed Precip Events Conditions
12:53 AM 53.1 °F 39.9 °F 61% 29.74 in 10.0 mi NW 11.5 mph - N/A   Overcast
2:53 AM 52.0 °F 41.0 °F 66% 29.77 in 10.0 mi WNW 8.1 mph - N/A   Overcast
3:53 AM 53.1 °F 42.1 °F 66% 29.77 in 10.0 mi WNW 10.4 mph - N/A   Overcast
4:53 AM 54.0 °F 42.1 °F 64% 29.79 in 10.0 mi WNW 10.4 mph - N/A   Overcast
5:53 AM 54.0 °F 42.1 °F 64% 29.81 in 10.0 mi WNW 8.1 mph - N/A   Overcast
6:53 AM 54.0 °F 42.1 °F 64% 29.82 in 10.0 mi NW 12.7 mph 19.6 mph N/A   Overcast
8:53 AM 53.1 °F 44.1 °F 71% 29.85 in 10.0 mi NW 8.1 mph - 0.01 in Rain Light Rain
9:53 AM 55.9 °F 43.0 °F 62% 29.86 in 10.0 mi West 4.6 mph - 0.00 in   Overcast
10:53 AM 59.0 °F 42.1 °F 53% 29.87 in 10.0 mi WNW 11.5 mph 21.9 mph N/A   Overcast
11:53 AM 62.1 °F 42.1 °F 48% 29.87 in 10.0 mi NW 24.2 mph 34.5 mph N/A   Scattered Clouds
12:53 PM 63.0 °F 42.1 °F 46% 29.89 in 10.0 mi WNW 27.6 mph 36.8 mph N/A   Partly Cloudy
1:53 PM 63.0 °F 42.1 °F 46% 29.91 in 10.0 mi WNW 25.3 mph 34.5 mph N/A   Scattered Clouds
2:53 PM 62.1 °F 43.0 °F 50% 29.92 in 10.0 mi WNW 24.2 mph 38.0 mph N/A   Clear
3:53 PM 63.0 °F 42.1 °F 46% 29.93 in 10.0 mi WNW 24.2 mph 34.5 mph N/A   Clear
4:53 PM 61.0 °F 43.0 °F 52% 29.94 in 10.0 mi WNW 26.5 mph 34.5 mph N/A   Clear
5:53 PM 59.0 °F 44.1 °F 58% 29.96 in 10.0 mi WNW 18.4 mph - N/A   Unknown
6:53 PM 57.9 °F 44.1 °F 60% 29.98 in 10.0 mi West 12.7 mph 23.0 mph N/A   Scattered Clouds
7:53 PM 57.9 °F 44.1 °F 60% 29.99 in 10.0 mi West 17.3 mph - N/A   Clear
8:53 PM 55.9 °F 45.0 °F 67% 30.00 in 10.0 mi WNW 11.5 mph - N/A   Clear
9:53 PM 55.9 °F 46.0 °F 69% 30.01 in 10.0 mi NW 12.7 mph - N/A   Clear
10:53 PM 55.9 °F 46.0 °F 69% 30.01 in 10.0 mi NW 12.7 mph - N/A   Partly Cloudy
11:53 PM 55.0 °F 45.0 °F 69% 30.00 in 10.0 mi WNW 12.7 mph - N/A   Partly Cloudy